Huvudsida
METAR-TAF:

METAR-TAF

Flygplatser :

Dasht-e Naz Airport

Sari, Iran

latitud: 36-38-09N, longitud: 53-11-37E, höjd: 11 m

Aktuellt väderrapport

Denna rapport gjordes för 48 minuter sedan, klockan 08:00 UTC
Vind 4 kt från nord/nordost
Temperatur 23°C
Fuktighet 50%
Tryck 1015 hPa
Sikt 10 km eller mer
Inga moln under 1 500 m eller inga cumulonimbus

METAR: OINZ 210800Z 03004KT CAVOK 23/12 Q1015

Tid: 12:18 (08:48 UTC)


TAF: saknas

Aktuella väderrapporter och prognoser från 4000 flygplatser (METAR- och TAF-rapporter).

De tillgängliga stationerna syns som gula och röda prickar på kartan.

För musen över prickarna för att se namnen på stationerna.

Klicka sedan för att få väderrapporter och prognoser.

För att ändra kartan: Klicka på de gröna knapparna med ett svart kors på för att zooma in; den gröna knappen med ett streck på för att zooma ut; eller på de gröna pilarna för angränsande kartor.


METAR-TAF: